Location: Dioou
(13.2904°N, 5.0505°W)
Time: 23:13:35
(UTC+00:00)

Daily predictions for brighter satellites

Satellite Brightness Start Highest point End
(mag) Time Altitude Azimuth Time Altitude Azimuth Time Altitude Azimuth
Cosmos 1461 4.1 18:31:13 10° N 18:34:57 25° ENE 18:38:45 10° ESE
Cosmos 2297 Rocket 3.2 18:30:25 10° SSW 18:35:51 50° WNW 18:41:19 10° N
Cosmos 1758 Rocket 3.8 18:33:42 10° S 18:38:01 73° W 18:42:18 10° N
Okean-O 2.6 18:34:46 10° SSE 18:39:10 82° ENE 18:43:36 10° N
Centaur AC-112 3.9 18:40:57 10° NNW 18:41:08 10° N 18:41:20 10° N
Cosmos 2084 Rocket 3.6 18:38:14 10° NNW 18:42:39 82° WSW 18:47:01 10° SSE
Cosmos 2333 4.4 18:39:33 10° NNW 18:45:12 81° WSW 18:50:48 10° SSE
ASTRO E2 4.3 18:43:41 10° NNW 18:46:30 18° NNE 18:49:03 11° ENE
Cosmos 2322 4.2 18:41:16 10° NNW 18:46:51 65° WSW 18:52:27 10° S
Intelsat 5-2 Rocket 3.0 18:44:29 10° SW 18:47:02 50° SSE 18:51:45 11° ENE
Cosmos 2227 Rocket 3.5 18:42:40 10° SW 18:48:00 43° WNW 18:53:20 10° N
CZ-4C R/B 3.8 18:42:42 10° N 18:49:35 30° ENE 18:56:42 10° ESE
Envisat 3.7 18:46:30 10° S 18:51:29 59° WSW 18:56:28 10° NNW
Fregat R/B Cluster 11 3.0 18:50:01 10° SSW 18:52:28 70° WNW 18:54:51 10° NNE
SWIFT 2.7 18:49:01 10° W 18:53:07 54° NNW 18:56:37 14° ENE
Cosmos 2263 Rocket 3.9 18:51:46 10° SE 18:53:58 12° ESE 18:55:17 11° E
Cosmos 1703 3.2 18:50:46 10° S 18:54:39 65° E 18:58:33 10° NNE
GPS 2-05 Rocket1 4.1 18:53:24 10° S 18:55:11 17° SE 18:56:26 13° ESE
CZ-4 R/B 1.3 18:52:39 10° SSE 18:56:31 61° ENE 19:00:27 10° N
CZ-4 R/B 4.4 18:55:21 10° SSE 18:59:28 82° ENE 19:03:36 10° N
Meteor 2-1 Rocket 4.1 18:55:50 10° N 19:01:21 82° E 19:06:59 10° S
GPS 2-12 Rocket1 3.7 18:58:18 10° WNW 19:02:53 43° N 19:06:02 18° ENE
SL-8 Rocket 4.5 18:59:33 10° SSW 19:05:48 65° W 19:12:03 10° N
Cosmos 2219 Rocket 2.3 19:00:23 10° NNW 19:06:01 80° WSW 19:11:38 10° SSE
Ariane H10+ 4.1 19:06:41 10° S 19:08:15 12° SSE 19:10:18 10° SE
COSMOS 2428 2.9 19:02:59 10° NNW 19:08:43 80° WSW 19:14:24 10° SSE
NOSS 0 Rocket 4.1 19:03:11 10° N 19:09:08 49° ENE 19:15:02 10° SE
Iridium 96 3.7 19:07:43 10° N 19:10:11 76° W 19:12:48 10° S
Hubble Space Telescope 3.5 19:08:24 10° WSW 19:11:02 16° SSW 19:13:41 10° S
Cosmos 1269 Rocket 4.1 19:11:38 10° N 19:16:44 50° ENE 19:21:49 10° SSE
Atlas Centaur 2 3.6 19:13:49 10° WNW 19:17:48 23° NNW 19:21:22 14° NNE
Stardust Del rocket 4.1 19:18:11 10° WNW 19:19:52 18° N 19:19:56 18° N
OAO 2 Rocket 3.2 19:17:32 10° SW 19:22:27 89° NW 19:25:00 29° NE
CSL-04 Debris 4.1 19:17:14 10° SSE 19:22:38 84° ENE 19:28:00 10° N
Cosmos 44 Rocket 3.3 19:20:17 10° S 19:25:08 59° ESE 19:27:36 27° NE
CZ-2D R/B 3.1 19:22:04 10° SSE 19:25:51 85° E 19:29:39 10° N
Cosmos 2098 4.3 19:23:45 10° S 19:27:07 54° E 19:27:23 52° ENE
ADEOS Rocket 3.8 19:26:20 10° N 19:33:19 66° WNW 19:40:53 10° SSW
Ariane Rocket 3.3 19:30:14 10° SE 19:34:55 40° ENE 19:36:54 28° NNE
Cosmos 1821 Rocket 4.0 19:31:47 10° S 19:38:03 60° E 19:43:18 15° NNE
GPS 2-18 Rocket1 3.9 19:34:36 10° WNW 19:37:52 36° N 19:37:52 36° N
YAOGAN 1 3.7 19:34:37 10° S 19:38:44 44° W 19:42:51 10° NNW
FALCON 9 R/B 4.1 19:14:35 10° WSW 19:39:02 49° NW 19:44:06 21° NNE
Fermi 4.3 19:35:59 10° SW 19:39:51 41° SSE 19:40:13 40° SE
Meteor 2-10 Rocket 3.3 19:35:49 10° N 19:40:58 81° E 19:45:58 10° S
GPS 2-14 Rocket1 4.0 19:42:42 10° SW 19:46:11 28° SSE 19:46:12 28° SSE
CZ-2C R/B 3.5 19:47:27 53° NNE 19:48:27 80° ESE 19:52:56 10° S
NOSS 3-2 (A) 3.1 19:48:32 10° S 19:53:52 57° ESE 19:54:12 56° E
Cosmos 2237 Rocket 2.1 19:51:06 10° NNW 19:56:43 84° WSW 20:02:20 10° SSE
CCE 1 Rocket 4.3 19:53:05 10° W 19:56:55 37° NNW 19:56:55 37° NNW
Cosmos 2227 4.2 19:52:42 10° SSW 19:58:27 84° WNW 20:00:30 42° N
Cosmos 1241 Rocket 4.3 19:56:33 10° NNW 20:02:47 88° ENE 20:09:08 10° SSE
OAO 3 Rocket 4.0 20:00:01 10° W 20:04:21 38° NNW 20:04:22 38° NNW
Cosmos 1455 4.1 20:02:51 10° NNW 20:06:07 28° W 20:09:23 10° SSW
CENTAUR R/B 4.0 20:03:27 10° SSE 20:04:45 16° SSE 20:04:45 16° SSE
USA 234 4.3 20:05:44 10° SSE 20:11:51 43° SW 20:17:59 10° NW
Cosmos 1934 Rocket 3.9 20:16:24 10° S 20:22:00 75° S 20:22:00 75° S
USA 238 DEB 4.0 20:23:00 10° SW 20:29:27 57° WNW 20:30:30 52° NNW
USA 238 4.0 20:23:07 10° SW 20:29:35 58° WNW 20:30:33 53° NNW
Delta 7925 Rocket 4.3 20:30:05 10° WNW 20:35:41 56° W 20:35:41 56° W
Cosmos 2263 Rocket 3.1 20:32:11 10° SW 20:37:04 44° W 20:37:04 44° W
CZ-4C R/B 4.1 20:30:28 10° NW 20:38:12 45° WSW 20:46:06 10° S
USA 215 4.1 20:59:55 46° WSW 20:59:55 46° WSW 21:04:22 10° SW
H-2A R/B 4.3 13:08:05 10° WSW 21:30:01 66° NW 21:30:01 66° NW
